Användare: Lösenord: Autologin

1000 kr bonus skattefritt

Bra utbud med höga odds skattefritt
SMG


Datum & tid Liga Match Insats Odds Rättning Resultat
2011-11-11 19:18 ATPThomas Berdych vs Andy Murray LIVE 1 FT 150 3.250 +337.5
2011-11-11 11:41 A-LeagueAdeleide vs Gold Coast United ÖVER LIVE Ö 15 hörnor FT 200 2.200 +240
2011-11-10 04.30 NHLAnaheim Mighty Ducks vs Nashville Predators LIVE -2.5 FT 1000 2.350 -1000
2011-11-10 04.05 NHLAnaheim Mighty Ducks vs Nashville Predators 1 FT 150 2.450 -150
2011-11-10 02.00 NCAATemple vs Miami Ohio ÖVER Ö 44 FT 250 1.900 +225
2011-11-10 01.35 PARLAY: 2 spel parlay 110 2.900 -110
2011-11-10 01.35 NHLTampa Bay Lightning vs Philadelphia Flyers ÖVER Ö 5.5 1.660
2011-11-10 01.35 NHLOttawa Senators vs New York Rangers UNDER U 5.5 1.740
2011-11-10 01.35 NHLOttawa Senators vs New York Rangers 2 FT 250 2.300 +325
2011-11-10 00.50 Copa SudamericanaVasco de Gama vs Universitario -1.5 FT 100 1.925 +92.5
2011-11-09 23:56 Copa Del ReyHospitalet vs Barcelona LIVE Sista hörn FT 150 2.200 +180
2011-11-09 23:55 Copa Del ReyHospitalet vs Barcelona ÖVER LIVE Ö 8 hörnor FT 100 1.830 +83
2011-11-09 23:01 Copa Del ReyHospitalet vs Barcelona LIVE 9 Hörnor FT 70 4.000 +210
2011-11-09 21:34 ATPJuan Monaco vs Gilles Simon LIVE 1 FT 460 1.660 +303.6
2011-11-09 19.00 Division 1Huddinge vs Arlanga Wings 2 FT 250 5.000 +1000
2011-11-09 19.00 AllsvenskanIFK Vänersborg vs Västerås SK 1.5 FT 200 2.100 -200
2011-11-09 19.00 PARLAY: 2 spel parlay 450 2.320 -450
2011-11-09 19.00 AllsvenskanIK SIrius vs Edsbyn IF 2 1.600
2011-11-09 19.00 AllsvenskanIFK Vänersborg vs Västerås SK 2 1.400
2011-11-09 19.00 ElitserienIFK Skövde HK vs Lugi HF -2 FT 125 1.850 -125
2011-11-09 19.00 ElitserienHammarby IF vs IFK Kristianstad 1 FT 60 2.300 -60
2011-11-09 15.00 Women Champions LeagueArsenal vs Rayo Vallecano -2.5 FT 180 2.200 +216
2011-11-09 01.05 NHLBuffalo Sabres vs Winnipeg Jets -1.5 FT 100 2.350 -100
2011-11-09 01.05 NHLWashington Capitals vs Dallas Stars -1.5 FT 100 2.650 -100
2011-11-09 01.05 NHLDetroit Red Wings vs Colorado Avalanche -1.5 FT 100 2.750 +175
2011-11-09 01.05 PARLAY: 3 spel parlay 145 6.900 -145
2011-11-09 01.05 NHLWashington Capitals vs Dallas Stars 1 1.950
2011-11-09 01.05 NHLBuffalo Sabres vs Winnipeg Jets 1 1.760
2011-11-09 01.05 NHLDetroit Red Wings vs Colorado Avalanche 1 2.000
2011-11-08 20.45 Johnstomes Paint TrophyRochdale vs Preston 2 FT 100 2.500 -100
2011-11-08 20.45 Johnstones Paint TrophyBrentford vs Bournemouth 1 FT 200 2.000 +200
2011-11-08 20.15 BundesligaFuchse Berlin vs Flensburg Handewitt 2 FT 100 3.400 -100
Visa:Sida:
av 2

Statistik Från start | Detta år | Denna månad | Denna veckan
Visa/Dölj filtrering
Antal spel:44 Insats:9960 Vinstprocent:56.1%
Vinster:23 Vunnet:+6890.65 Medelodds:2.67
Förluster:18 Förlorat:-3650 Medelinsats:224.63
Push:3 Netto:+3240.65Medelvinst:+79.04
Levande spel:0 ROI:132.54%
Levande risk:0 Startkassa:5000
Levande vinst:0Kassa + netto:8240.65
Kassa - risk:8240.65
Kassa + levande:8240.65

Graf Kassa | Resultat | ROI/Filter

StartsidanHjälpListaBlogglistaSpelschemaForumGlömt lösenordRegistrera

Copyright © 2009-2012 spreadsheet.se